User: anonymous   Login
Location: Charbonni�res
(45.9952°N, 2.9982°E)
Time: 16:52:34
(UTC+00:00)
Language:

FENGYUN 1C DEB - Orbit

View from above orbital plane
View from above orbital plane
View from above satellite
View from above satellite

Ground track
Ground track

The orbit data is extracted from the following two-line orbital elements,

1 29971U 99025KV  21172.05658159  .00000319  00000-0  19867-3 0  9992
2 29971  98.8867 218.1553 0027012 147.3515 242.7604 14.11680388742210
Epoch (UTC): 21 June 2021 01:21:28
Eccentricity: 0.0027012
inclination: 98.8867°
perigee height: 834 km
apogee height: 873 km
right ascension of ascending node: 218.1553°
argument of perigee: 147.3515°
revolutions per day: 14.11680388
mean anomaly at epoch: 242.7604°
orbit number at epoch: 74221

The dashed part of the orbit path shows where the satellite is in the earth's shadow,  

DLR